Location: Antichan
(42.9728°N, 0.6667°E)
Time: 13:55:39
(UTC+00:00)

SJ-6B - Pass Details

Date: 15 August 2020
Orbit: 510 x 581 km, 97.6° (Epoch: 25 September)

Event Time Altitude Azimuth Distance (km) Brightness Sun altitude
Rises 19:19:37 0° 152° (SSE) 2,757 5.9 -4.3°
Reaches altitude 10° 19:21:49 10° 147° (SSE) 1,854 5.0 -4.7°
Maximum altitude 19:25:40 47° 73° (ENE) 746 3.2 -5.3°
Drops below altitude 10° 19:29:28 10° 360° (N) 1,829 5.8 -6.0°
Sets 19:31:37 0° 354° (N) 2,714 6.8 -6.3°
